Regional Weather Roundup
Issued by NWS

Home | Current Version | Previous Version | Graphics & Text | Print | Product List | Glossary On
Versions: 1 2 3 4 5 6 7 8 9 10 11 12 13 14 15 16 17 18 19 20 21 22 23 24 25 26 27 28 29 30 31 32 33 34 35 36 37 38 39 40 41 42 43 44 45 46 47 48 49 50
000
ASUS45 KPSR 021200
RWRAZ

PRELIMINARY ARIZONA REGIONAL HOURLY WEATHER ROUNDUP
NATIONAL WEATHER SERVICE PHOENIX AZ
500 AM MST MON MAR 02 2015

NOTE: FAIR INDICATES FEW OR NO CLOUDS BELOW 12,000 FEET WITH NO
SIGNIFICANT WEATHER AND/OR OBSTRUCTIONS TO VISIBILITY.

AZZ001>003-036-021300-
NORTHWEST ARIZONA

CITY           SKY/WX    TMP DP  RH WIND       PRES   REMARKS
KINGMAN        LGT RAIN  42  38  85 SW10      29.85S
6HR MIN TEMP:  40; 6HR MAX TEMP:  42; 6HR PCP:  0.60;

$$

AZZ004>008-015-016-018-021300-
NORTH CENTRAL ARIZONA

CITY           SKY/WX    TMP DP  RH WIND       PRES   REMARKS
GRAND CANYON   FLURRIES  37  34  89 S10       29.85F WCI  30
6HR MIN TEMP:  35; 6HR MAX TEMP:  39; 6HR PCP:  0.21;

PRESCOTT       CLOUDY    46  38  73 S14G20    29.86F
6HR MIN TEMP:  45; 6HR MAX TEMP:  48; 6HR PCP:  0.05;

FLAGSTAFF      NOT AVBL
PAYSON         CLOUDY    46  45  93 S15G24    29.94F
PAGE           CLOUDY    37  34  89 CALM      29.84F
6HR MIN TEMP:  36; 6HR MAX TEMP:  38; 6HR PCP:  0.07;

$$

AZZ009>014-017-021300-
NORTHEAST ARIZONA

CITY           SKY/WX    TMP DP  RH WIND       PRES   REMARKS
WINSLOW        NOT AVBL
SAINT JOHNS    PTCLDY    34  27  75 W6        29.95F WCI  29
6HR MIN TEMP:  32; 6HR MAX TEMP:  39;

WINDOW ROCK    MOCLDY    35  32  88 CALM      29.99F
6HR MIN TEMP:  35; 6HR MAX TEMP:  45;

$$

AZZ023-021300-
GREATER PHOENIX AREA

CITY           SKY/WX    TMP DP  RH WIND       PRES   REMARKS
PHOENIX        CLOUDY    64  49  57 SE7       29.86F
6HR MIN TEMP:  64; 6HR MAX TEMP:  68;

LUKE AFB       MOCLDY    63  48  59 SE7       29.85F
DEER VALLEY    CLOUDY    60  49  66 SE5       29.87S
6HR MIN TEMP:  59; 6HR MAX TEMP:  64;

SCOTTSDALE     CLOUDY    61  50  67 SE5       29.89S
6HR MIN TEMP:  61; 6HR MAX TEMP:  65;

MESA-GATEWAY   CLOUDY    61  52  72 S5        29.91S
$$

AZZ027-028-021300-
SOUTHWEST MARICOPA COUNTY AND PINAL COUNTY

CITY           SKY/WX    TMP DP  RH WIND       PRES   REMARKS
CASA GRANDE    CLOUDY    61  46  59 S6        29.91R
6HR MIN TEMP:  59; 6HR MAX TEMP:  63;

GILA BEND      CLOUDY    64  51  63 SW10G20   29.87S
6HR MIN TEMP:  63; 6HR MAX TEMP:  66;

$$

AZZ503-504-507>509-021300-
SOUTHEAST ARIZONA

CITY           SKY/WX    TMP DP  RH WIND       PRES   REMARKS
TUCSON         CLOUDY    61  44  53 CALM      29.97S
6HR MIN TEMP:  60; 6HR MAX TEMP:  65;

DAVIS-MONTHAN  CLOUDY    59  45  59 W9        29.94S
6HR MIN TEMP:  56; 6HR MAX TEMP:  64;

NOGALES        MOCLDY    54  43  66 S13       30.00S
6HR MIN TEMP:  54; 6HR MAX TEMP:  59;

SIERRA VISTA   MOCLDY    54  34  47 N7        29.98S
SAFFORD        MOCLDY    57  34  41 SE10      29.92F
6HR MIN TEMP:  57; 6HR MAX TEMP:  61;

$$

AZZ020-021-025-026-031-021300-
SOUTHWEST ARIZONA

CITY           SKY/WX    TMP DP  RH WIND       PRES   REMARKS
YUMA           LGT RAIN  53  50  89 E8        29.89F
6HR MIN TEMP:  53; 6HR MAX TEMP:  54; 6HR PCP:  0.08;

$$

CAZ031-033-041-043-047-048-061-021300-
SOUTHERN CALIFORNIA

CITY           SKY/WX    TMP DP  RH WIND       PRES   REMARKS
DOWNTOWN L.A.  CLOUDY    50  48  93 CALM      29.89S
6HR MIN TEMP:  50; 6HR MAX TEMP:  51; 6HR PCP:  0.66;

L.A. AIRPORT   MOCLDY    49  47  93 SE5       29.89F
6HR MIN TEMP:  49; 6HR MAX TEMP:  54; 6HR PCP:  0.21;

SAN DIEGO      MOCLDY    53  47  79 N13G20    29.92S
6HR MIN TEMP:  53; 6HR MAX TEMP:  56; 6HR PCP: TRACE;

BURBANK        PTCLDY    47  45  93 CALM      29.87F
6HR MIN TEMP:  47; 6HR MAX TEMP:  50; 6HR PCP:  0.30;

ONTARIO        RAIN      46  43  89 W12       29.91R FOG
6HR MIN TEMP:  46; 6HR MAX TEMP:  52; 6HR PCP:  0.03;

RIVERSIDE      CLOUDY    48  42  80 W7        29.91R
6HR MIN TEMP:  47; 6HR MAX TEMP:  51;

PALM SPRINGS   LGT RAIN  52  48  86 CALM      29.90F
6HR MIN TEMP:  51; 6HR MAX TEMP:  53; 6HR PCP:  0.01;

EL CENTRO NAS  LGT RAIN  52  50  93 S6        29.90S
6HR MIN TEMP:  52; 6HR MAX TEMP:  53; 6HR PCP:  0.03;

IMPERIAL       LGT RAIN  52  50  93 S6        29.90S
6HR MIN TEMP:  52; 6HR MAX TEMP:  53; 6HR PCP:  0.04;

BLYTHE         LGT RAIN  50  50 100 S6        29.90S
6HR MIN TEMP:  50; 6HR MAX TEMP:  52; 6HR PCP:  0.32;

$$

NVZ020-UTZ003-021300-
SOUTHERN NEVADA-UTAH

CITY           SKY/WX    TMP DP  RH WIND       PRES   REMARKS
LAS VEGAS      NOT AVBL
SALT LAKE CITY CLOUDY    36  31  82 CALM      29.82F
6HR MIN TEMP:  36; 6HR MAX TEMP:  40;

$$

NMZ009-TXZ055-021300-
NEW MEXICO-WEST TEXAS

CITY           SKY/WX    TMP DP  RH WIND       PRES   REMARKS
ALBUQUERQUE    CLOUDY    37  31  78 N8        30.05F WCI  31
6HR MIN TEMP:  37; 6HR MAX TEMP:  51;

EL PASO        CLOUDY    56  31  38 CALM      30.03F
6HR MIN TEMP:  54; 6HR MAX TEMP:  62;

$$


........................KEY........................
SKY/WX - SKY CONDITION/WEATHER
TMP    - TEMPERATURE IN FAHRENHEIT
DP     - DEW POINT IN FAHRENHEIT
RH     - RELATIVE HUMIDITY IN PERCENT
WIND   - DIRECTION AND SPEED IN MILES PER HOUR (MPH)
VRB    - VARIABLE WIND DIRECTION
PRES   - MEAN SEA LEVEL PRESSURE IN INCHES OF MERCURY
         F - FALLING PRESSURE   R - RISING PRESSURE
         S - STEADY PRESSURE
VSB    - VISIBILITY IN MILES
HX     - HEAT INDEX IN FAHRENHEIT
WCI    - WIND CHILL INDEX IN FAHRENHEIT
TC     - TEMPERATURE IN CELSIUS WHICH IS ALSO KNOWN AS
         TEMPERATURE IN CENTIGRADE
AFB    - AIR FORCE BASE
         LUKE AFB IS LUKE AIR FORCE BASE
         DAVIS-MONTHAN IS DAVIS-MONTHAN AIR FORCE BASE
NAS    - NAVAL AIR STATION
         EL CENTRO NAS IS EL CENTRO NAVAL AIR STATION
N/A    - NOT AVAILABLE



USA.gov is the U.S. government's official web portal to all federal, state and local government web resources and services.